CW9687 Weather Reports


Display with metric or nautical units.
time (UTC)temp
F
wind
direction
speed
MPH
gust
MPH
rain 1hr
in
rain 24hr
in
rain mn
in
humidity
%
barometer
mb
20210615102506 50 39 0.0 0.0 0.00 0.00 0.00 90 1014.6
20210615102005 50 39 0.0 0.0 0.00 0.00 0.00 90 1014.6
20210615101506 50 39 0.0 0.0 0.00 0.00 0.00 90 1014.5
20210615101003 50 39 0.0 2.0 0.00 0.00 0.00 90 1014.8
20210615100503 50 39 0.0 3.0 0.00 0.00 0.00 90 1014.7
20210615100003 50 39 0.0 3.0 0.00 0.00 0.00 90 1014.8
20210615095502 50 39 0.0 4.0 0.00 0.00 0.00 90 1014.7
20210615095001 50 39 1.0 4.0 0.00 0.00 0.00 90 1014.8
20210615094500 50 39 1.0 4.0 0.00 0.00 0.00 90 1014.8
20210615094100 50 39 0.0 0.0 0.00 0.00 0.00 90 1014.8
20210615093618 50 39 0.0 0.0 0.00 0.00 0.00 90 1014.8
20210615093230 50 39 0.0 0.0 0.00 0.00 0.00 90 1014.8
20210615092619 51 39 0.0 0.0 0.00 0.00 0.00 90 1014.9
20210615092106 51 39 0.0 0.0 0.00 0.00 0.00 90 1014.9
20210615091633 51 39 0.0 0.0 0.00 0.00 0.00 90 1014.9
20210615091057 51 39 0.0 0.0 0.00 0.00 0.00 89 1015.0
20210615090555 51 39 0.0 0.0 0.00 0.00 0.00 89 1015.0
20210615090229 51 39 0.0 0.0 0.00 0.00 0.00 89 1015.0
20210615085603 51 39 0.0 0.0 0.00 0.00 0.00 89 1015.2
20210615085132 51 39 0.0 0.0 0.00 0.00 0.00 89 1015.1
20210615084700 51 39 0.0 2.0 0.00 0.00 0.00 89 1015.2
20210615084106 51 39 0.0 2.0 0.00 0.00 0.00 89 1015.2
20210615083553 51 39 0.0 2.0 0.00 0.00 0.00 89 1015.2
20210615083114 51 39 0.0 3.0 0.00 0.00 0.00 89 1015.2
20210615082551 51 39 1.0 4.0 0.00 0.00 0.00 89 1015.1
20210615082051 52 39 0.0 3.0 0.00 0.00 0.00 89 1015.2
20210615081655 52 39 0.0 4.0 0.00 0.00 0.00 89 1015.2
20210615081118 52 39 1.0 4.0 0.00 0.00 0.00 89 1015.2
20210615080550 52 39 2.0 4.0 0.00 0.00 0.00 89 1015.2
20210615080100 52 39 1.0 3.0 0.00 0.00 0.00 89 1015.2
20210615075553 52 39 1.0 3.0 0.00 0.00 0.00 88 1015.2
20210615075106 52 39 2.0 3.0 0.00 0.00 0.00 88 1015.2
20210615074623 52 39 0.0 0.0 0.00 0.00 0.00 88 1015.3
20210615074056 52 39 0.0 0.0 0.00 0.00 0.00 88 1015.3
20210615073607 52 39 0.0 0.0 0.00 0.00 0.00 88 1015.4
20210615073124 52 39 0.0 0.0 0.00 0.00 0.00 88 1015.4
20210615072558 52 39 0.0 0.0 0.00 0.00 0.00 88 1015.4
20210615072045 52 39 0.0 3.0 0.00 0.00 0.00 88 1015.5
20210615071620 53 39 0.0 3.0 0.00 0.00 0.00 88 1015.4
20210615071043 53 39 1.0 3.0 0.00 0.00 0.00 87 1015.5
20210615070641 53 39 1.0 4.0 0.00 0.00 0.00 87 1015.4
20210615070049 53 39 2.0 4.0 0.00 0.00 0.00 87 1015.5
20210615065541 53 39 0.0 3.0 0.00 0.00 0.00 87 1015.5
20210615065042 53 39 0.0 3.0 0.00 0.00 0.00 87 1015.5
20210615064543 53 39 0.0 5.0 0.00 0.00 0.00 87 1015.5
20210615064041 53 39 2.0 5.0 0.00 0.00 0.00 87 1015.5
20210615063540 53 39 2.0 4.0 0.00 0.00 0.00 87 1015.5
20210615063154 53 39 2.0 4.0 0.00 0.00 0.00 86 1015.5
20210615062634 53 39 1.0 4.0 0.00 0.00 0.00 86 1015.5
20210615062040 53 39 2.0 5.0 0.00 0.00 0.00 86 1015.5
20210615061649 53 40 2.0 6.0 0.00 0.00 0.00 86 1015.5
20210615061105 54 40 3.0 6.0 0.00 0.00 0.00 86 1015.5
20210615060545 54 35 2.0 5.0 0.00 0.00 0.00 86 1015.7
20210615060116 54 35 1.0 5.0 0.00 0.00 0.00 86 1015.7
20210615055544 54 35 3.0 7.0 0.00 0.00 0.00 85 1015.7
20210615055045 54 60 2.0 6.0 0.00 0.00 0.00 86 1015.7
20210615054601 54 86 2.0 7.0 0.00 0.00 0.00 85 1015.6
20210615054042 54 86 2.0 7.0 0.00 0.00 0.00 85 1015.7
20210615053538 54 89 1.0 4.0 0.00 0.00 0.00 85 1015.6
20210615052537 54 89 1.0 5.0 0.00 0.00 0.00 85 1015.6
20210615052041 54 89 1.0 5.0 0.00 0.00 0.00 85 1015.4
20210615051604 55 89 0.0 4.0 0.00 0.00 0.00 85 1015.5
20210615051037 55 89 0.0 4.0 0.00 0.00 0.00 85 1015.5
20210615050536 55 89 1.0 4.0 0.00 0.00 0.00 85 1015.5
20210615050006 55 89 0.0 3.0 0.00 0.00 0.00 85 1015.4
20210615045501 55 89 0.0 3.0 0.00 0.00 0.00 84 1015.4
20210615045000 55 89 1.0 6.0 0.00 0.00 0.00 84 1015.4
20210615044648 55 89 0.0 7.0 0.00 0.00 0.00 84 1015.4
20210615044059 55 51 3.0 7.0 0.00 0.00 0.00 84 1015.4
20210615043558 55 88 0.0 5.0 0.00 0.00 0.00 84 1015.3
20210615043108 55 88 1.0 5.0 0.00 0.00 0.00 84 1015.3
20210615042607 55 88 1.0 5.0 0.00 0.00 0.00 84 1015.4
20210615042101 55 88 2.0 5.0 0.00 0.00 0.00 83 1015.2
20210615041621 55 88 0.0 5.0 0.00 0.00 0.00 83 1015.4
20210615041144 55 88 0.0 9.0 0.00 0.00 0.00 83 1015.3
20210615040551 55 88 1.0 9.0 0.00 0.00 0.00 82 1015.2
20210615040249 56 79 2.0 9.0 0.00 0.00 0.00 82 1015.1
20210615035603 56 100 4.0 9.0 0.00 0.00 0.00 82 1015.2
20210615035105 56 85 1.0 8.0 0.00 0.00 0.00 81 1015.2
20210615034727 56 85 3.0 8.0 0.00 0.00 0.00 81 1015.2
20210615034056 56 77 1.0 4.0 0.00 0.00 0.00 80 1015.1
20210615033551 57 77 2.0 7.0 0.00 0.00 0.00 79 1015.1
20210615033127 57 77 2.0 7.0 0.00 0.00 0.00 78 1015.1
20210615032550 58 74 0.0 5.0 0.00 0.00 0.00 76 1015.2
20210615032055 58 74 1.0 4.0 0.00 0.00 0.00 75 1015.2
20210615031628 59 74 0.0 4.0 0.00 0.00 0.00 74 1015.2
20210615031050 59 74 0.0 4.0 0.00 0.00 0.00 74 1015.2
20210615030548 59 74 0.0 1.0 0.00 0.00 0.00 73 1015.3
20210615030130 60 74 0.0 6.0 0.00 0.00 0.00 72 1015.2
20210615025544 60 74 0.0 11.0 0.00 0.00 0.00 72 1015.2
20210615025044 60 19 1.0 12.0 0.00 0.00 0.00 72 1015.2
20210615024722 61 50 4.0 12.0 0.00 0.00 0.00 71 1015.2
20210615024044 61 359 3.0 9.0 0.00 0.00 0.00 70 1015.1
20210615023546 61 25 2.0 10.0 0.00 0.00 0.00 69 1015.0
20210615023140 62 29 3.0 10.0 0.00 0.00 0.00 69 1015.0
20210615022544 62 16 1.0 10.0 0.00 0.00 0.00 68 1015.0
20210615022043 62 70 0.0 11.0 0.00 0.00 0.00 67 1015.0
20210615021723 63 350 3.0 11.0 0.00 0.00 0.00 66 1015.0
20210615021052 63 38 2.0 11.0 0.00 0.00 0.00 66 1014.9
20210615020546 64 50 5.0 11.0 0.00 0.00 0.00 65 1014.9
20210615020148 64 40 2.0 9.0 0.00 0.00 0.00 64 1014.9
20210615015542 65 54 2.0 14.0 0.00 0.00 0.00 64 1014.8
20210615015041 65 4 6.0 20.0 0.00 0.00 0.00 64 1014.7
20210615014625 65 352 4.0 20.0 0.00 0.00 0.00 64 1014.6
20210615014043 65 356 2.0 15.0 0.00 0.00 0.00 64 1014.7
20210615013617 66 325 2.0 15.0 0.00 0.00 0.00 63 1014.7
20210615013128 66 344 2.0 10.0 0.00 0.00 0.00 63 1014.7
20210615012540 66 29 2.0 12.0 0.00 0.00 0.00 63 1014.8
20210615012045 66 341 3.0 13.0 0.00 0.00 0.00 63 1014.7
20210615011557 67 17 3.0 13.0 0.00 0.00 0.00 62 1014.7
20210615011051 67 295 4.0 14.0 0.00 0.00 0.00 62 1014.7
20210615010544 67 25 4.0 16.0 0.00 0.00 0.00 61 1014.6
20210615010111 68 214 5.0 16.0 0.00 0.00 0.00 60 1014.7
20210615005610 69 8 3.0 15.0 0.00 0.00 0.00 60 1014.5
20210615005039 69 91 3.0 12.0 0.00 0.00 0.00 59 1014.5
20210615004558 69 46 3.0 11.0 0.00 0.00 0.00 59 1014.6
20210615004039 69 359 3.0 16.0 0.00 0.00 0.00 59 1014.5
20210615003539 70 101 5.0 16.0 0.00 0.00 0.00 59 1014.5
20210615003105 70 12 6.0 18.0 0.00 0.00 0.00 59 1014.4
20210615002550 71 29 3.0 18.0 0.00 0.00 0.00 58 1014.4
20210615002050 71 38 5.0 17.0 0.00 0.00 0.00 57 1014.4
20210615001607 71 327 5.0 18.0 0.00 0.00 0.00 57 1014.4
20210615001037 72 6 5.0 18.0 0.00 0.00 0.00 56 1014.4
20210615000606 72 11 4.0 23.0 0.00 0.00 0.00 56 1014.4
20210615000044 73 35 7.0 23.0 0.00 0.00 0.00 56 1014.3
20210614235536 73 16 8.0 22.0 0.00 0.00 0.00 55 1014.3
20210614235039 73 333 3.0 19.0 0.00 0.00 0.00 55 1014.3
20210614234624 73 29 5.0 23.0 0.00 0.00 0.00 55 1014.5
20210614234042 74 332 4.0 23.0 0.00 0.00 0.00 55 1014.4
20210614233535 74 298 9.0 24.0 0.00 0.00 0.00 55 1014.5
20210614233109 74 40 4.0 22.0 0.00 0.00 0.00 55 1014.3
20210614232534 74 295 6.0 22.0 0.00 0.00 0.00 55 1014.4
20210614232038 75 39 5.0 20.0 0.00 0.00 0.00 54 1014.4
20210614231636 75 19 6.0 20.0 0.00 0.00 0.00 54 1014.4
20210614231037 75 337 3.0 19.0 0.00 0.00 0.00 54 1014.4
20210614230534 75 347 7.0 19.0 0.00 0.00 0.00 54 1014.4
20210614230137 76 358 7.0 18.0 0.00 0.00 0.00 53 1014.4
20210614225551 76 35 4.0 18.0 0.00 0.00 0.00 53 1014.5
20210614225052 76 23 6.0 23.0 0.00 0.00 0.00 53 1014.5
20210614224620 76 323 4.0 23.0 0.00 0.00 0.00 53 1014.6
20210614224109 77 275 7.0 18.0 0.00 0.00 0.00 52 1014.4
20210614223559 77 26 6.0 19.0 0.00 0.00 0.00 53 1014.5
20210614223156 77 354 3.0 19.0 0.00 0.00 0.00 53 1014.5
20210614222550 77 30 7.0 17.0 0.00 0.00 0.00 52 1014.6
20210614222050 78 15 7.0 17.0 0.00 0.00 0.00 52 1014.4
20210614221649 78 23 7.0 17.0 0.00 0.00 0.00 51 1014.4
20210614221051 78 348 4.0 15.0 0.00 0.00 0.00 51 1014.5
20210614220555 79 16 6.0 17.0 0.00 0.00 0.00 51 1014.5
20210614220232 79 75 3.0 23.0 0.00 0.00 0.00 51 1014.5
20210614215556 78 342 6.0 23.0 0.00 0.00 0.00 51 1014.5
20210614215049 79 334 4.0 16.0 0.00 0.00 0.00 50 1014.5
20210614214620 79 358 3.0 15.0 0.00 0.00 0.00 50 1014.5
20210614214102 79 325 2.0 15.0 0.00 0.00 0.00 51 1014.5
20210614213547 79 269 4.0 12.0 0.00 0.00 0.00 51 1014.5
20210614213115 78 83 4.0 15.0 0.00 0.00 0.00 52 1014.5
20210614212545 78 15 5.0 16.0 0.00 0.00 0.00 52 1014.5
20210614212044 78 27 7.0 16.0 0.00 0.00 0.00 52 1014.5
20210614211733 78 37 7.0 19.0 0.00 0.00 0.00 52 1014.5
20210614211045 79 310 5.0 19.0 0.00 0.00 0.00 52 1014.6
20210614210544 79 18 7.0 16.0 0.00 0.00 0.00 51 1014.4
20210614210213 80 283 4.0 20.0 0.00 0.00 0.00 49 1014.4
20210614205614 80 21 2.0 21.0 0.00 0.00 0.00 50 1014.2
20210614205046 80 239 4.0 21.0 0.00 0.00 0.00 50 1014.2
20210614204621 80 337 6.0 21.0 0.00 0.00 0.00 49 1014.3
20210614204047 81 294 3.0 15.0 0.00 0.00 0.00 48 1014.2
20210614203553 81 29 3.0 17.0 0.00 0.00 0.00 47 1014.3
20210614203132 82 312 5.0 15.0 0.00 0.00 0.00 46 1014.2
20210614202603 83 31 5.0 15.0 0.00 0.00 0.00 45 1014.2
20210614202045 84 42 6.0 14.0 0.00 0.00 0.00 43 1014.2
20210614201640 83 21 2.0 17.0 0.00 0.00 0.00 44 1014.4
20210614201041 83 64 4.0 20.0 0.00 0.00 0.00 45 1014.4
20210614200540 82 17 7.0 19.0 0.00 0.00 0.00 45 1014.2
20210614200107 82 255 3.0 10.0 0.00 0.00 0.00 47 1014.3
20210614195547 81 70 3.0 7.0 0.00 0.00 0.00 49 1014.3
20210614195100 80 281 1.0 8.0 0.00 0.00 0.00 50 1014.3
20210614194628 79 246 3.0 8.0 0.00 0.00 0.00 51 1014.3
20210614193601 79 279 5.0 10.0 0.00 0.00 0.00 51 1014.4
20210614193110 78 265 2.0 10.0 0.00 0.00 0.00 53 1014.4
20210614192547 78 248 3.0 10.0 0.00 0.00 0.00 53 1014.5
20210614192040 78 269 2.0 10.0 0.00 0.00 0.00 53 1014.5
20210614191622 77 239 3.0 10.0 0.00 0.00 0.00 54 1014.4
20210614191040 77 264 4.0 9.0 0.00 0.00 0.00 53 1014.5
20210614190536 77 271 3.0 8.0 0.00 0.00 0.00 54 1014.5
20210614190014 76 285 3.0 8.0 0.00 0.00 0.00 56 1014.5
20210614185519 75 289 3.0 9.0 0.00 0.00 0.00 57 1014.6
20210614185017 75 253 4.0 9.0 0.00 0.00 0.00 57 1014.6
20210614184533 75 263 3.0 11.0 0.00 0.00 0.00 57 1014.7
20210614184003 75 254 5.0 11.0 0.00 0.00 0.00 56 1014.6
20210614183506 76 256 2.0 12.0 0.00 0.00 0.00 56 1014.6
20210614183002 76 270 4.0 12.0 0.00 0.00 0.00 56 1014.6
20210614182601 76 227 2.0 8.0 0.00 0.00 0.00 57 1014.6
20210614182059 75 261 3.0 10.0 0.00 0.00 0.00 57 1014.6
20210614181746 74 250 4.0 10.0 0.00 0.00 0.00 58 1014.6
20210614181056 74 314 2.0 8.0 0.00 0.00 0.00 58 1014.5
20210614180601 73 314 2.0 10.0 0.00 0.00 0.00 60 1014.6
20210614180013 72 241 4.0 10.0 0.00 0.00 0.00 62 1014.6
20210614175524 71 263 4.0 10.0 0.00 0.00 0.00 62 1014.6
20210614175011 72 290 4.0 10.0 0.00 0.00 0.00 62 1014.6
20210614174503 71 285 4.0 10.0 0.00 0.00 0.00 64 1014.7
20210614173600 71 255 4.0 9.0 0.00 0.00 0.00 63 1014.6
20210614173247 70 312 4.0 9.0 0.00 0.00 0.00 63 1014.7
20210614172556 70 312 5.0 9.0 0.00 0.00 0.00 65 1014.7
20210614172102 69 270 4.0 10.0 0.00 0.00 0.00 65 1014.7
20210614171636 69 289 6.0 10.0 0.00 0.00 0.00 66 1014.9
20210614171052 69 267 5.0 11.0 0.00 0.00 0.00 66 1014.8
20210614170555 69 311 4.0 11.0 0.00 0.00 0.00 65 1014.9
20210614170142 69 307 3.0 9.0 0.00 0.00 0.00 66 1015.0
20210614165556 68 293 4.0 9.0 0.00 0.00 0.00 67 1015.0
20210614165107 68 293 3.0 8.0 0.00 0.00 0.00 67 1015.0
20210614164645 68 291 2.0 8.0 0.00 0.00 0.00 67 1015.1
20210614164052 69 276 4.0 8.0 0.00 0.00 0.00 67 1015.1
20210614163550 68 295 2.0 6.0 0.00 0.00 0.00 68 1015.1
20210614163137 68 274 3.0 6.0 0.00 0.00 0.00 67 1015.1
20210614162553 68 289 1.0 9.0 0.00 0.00 0.00 69 1015.2
20210614162049 67 267 4.0 9.0 0.00 0.00 0.00 70 1015.2
20210614161611 67 277 4.0 8.0 0.00 0.00 0.00 69 1015.1
20210614161044 67 272 2.0 5.0 0.00 0.00 0.00 70 1015.1
20210614160551 67 271 3.0 5.0 0.00 0.00 0.00 70 1015.2
20210614160118 67 267 1.0 5.0 0.00 0.00 0.00 70 1015.1
20210614155553 67 267 0.0 4.0 0.00 0.00 0.00 71 1015.2
20210614155052 67 269 0.0 4.0 0.00 0.00 0.00 71 1015.3
20210614154629 67 269 0.0 2.0 0.00 0.00 0.00 71 1015.3
20210614154052 66 269 0.0 2.0 0.00 0.00 0.00 73 1015.3
20210614153549 65 262 0.0 4.0 0.00 0.00 0.00 74 1015.3
20210614153145 65 262 1.0 5.0 0.00 0.00 0.00 73 1015.3
20210614152616 66 260 1.0 4.0 0.00 0.00 0.00 72 1015.3
20210614152043 66 156 0.0 5.0 0.00 0.00 0.00 73 1015.4
20210614151639 65 79 1.0 7.0 0.00 0.00 0.00 75 1015.4
20210614151048 64 79 0.0 7.0 0.00 0.00 0.00 77 1015.3
20210614150538 63 79 1.0 7.0 0.00 0.00 0.00 79 1015.3
20210614150140 62 79 0.0 3.0 0.00 0.00 0.00 80 1015.4
20210614145604 61 79 0.0 4.0 0.00 0.00 0.00 84 1015.4
20210614145101 60 79 0.0 4.0 0.00 0.00 0.00 85 1015.3
20210614144631 59 79 0.0 5.0 0.00 0.00 0.00 86 1015.4
20210614144054 59 79 1.0 5.0 0.00 0.00 0.00 89 1015.3
20210614143624 58 79 2.0 4.0 0.00 0.00 0.00 90 1015.2
20210614143115 57 79 2.0 4.0 0.00 0.00 0.00 93 1015.2
20210614142550 56 79 2.0 5.0 0.00 0.00 0.00 94 1015.2
20210614142048 55 79 3.0 5.0 0.00 0.00 0.00 95 1015.2
20210614141620 55 79 2.0 5.0 0.00 0.00 0.00 95 1015.2
20210614141050 54 79 2.0 5.0 0.00 0.00 0.00 95 1015.2
20210614140545 54 79 3.0 5.0 0.00 0.00 0.00 95 1015.2
20210614140114 53 73 2.0 4.0 0.00 0.00 0.00 95 1015.3
20210614135548 53 73 1.0 4.0 0.00 0.00 0.00 96 1015.2
20210614135033 52 73 1.0 4.0 0.00 0.00 0.00 95 1015.2
20210614134611 51 73 3.0 4.0 0.00 0.00 0.00 95 1015.2
20210614134030 51 73 0.0 3.0 0.00 0.00 0.00 95 1015.2
20210614133519 50 73 1.0 3.0 0.00 0.00 0.00 95 1015.2
20210614133022 50 73 1.0 3.0 0.00 0.00 0.00 95 1015.2
20210614132518 50 73 0.0 4.0 0.00 0.00 0.00 95 1015.1
20210614132029 50 73 1.0 4.0 0.00 0.00 0.00 95 1015.2
20210614131605 50 73 2.0 5.0 0.00 0.00 0.00 95 1015.1
20210614131103 50 73 2.0 5.0 0.00 0.00 0.00 95 1015.1
20210614130517 50 71 1.0 4.0 0.00 0.00 0.00 94 1015.1
20210614130028 50 71 1.0 4.0 0.00 0.00 0.00 94 1015.1
20210614125523 50 71 0.0 4.0 0.00 0.00 0.00 94 1015.1
20210614125014 50 71 2.0 4.0 0.00 0.00 0.00 94 1015.1
20210614124546 50 70 0.0 4.0 0.00 0.00 0.00 94 1015.1
20210614124039 50 70 2.0 4.0 0.00 0.00 0.00 94 1015.0
20210614123522 50 70 2.0 4.0 0.00 0.00 0.00 94 1015.1
20210614123035 50 67 1.0 4.0 0.00 0.00 0.00 94 1014.9
20210614122518 50 67 2.0 4.0 0.00 0.00 0.00 94 1014.8
20210614122013 50 23 1.0 3.0 0.00 0.00 0.00 94 1014.9
20210614121519 50 8 0.0 3.0 0.00 0.00 0.00 94 1014.9
20210614121016 50 357 0.0 0.0 0.00 0.00 0.00 94 1015.0
20210614120526 50 357 0.0 0.0 0.00 0.00 0.00 94 1015.0
20210614120023 50 357 0.0 0.0 0.00 0.00 0.00 94 1015.2
20210614115510 50 357 0.0 0.0 0.00 0.00 0.00 94 1015.1
20210614115015 50 357 0.0 0.0 0.00 0.00 0.00 94 1015.1
20210614114518 50 357 0.0 0.0 0.00 0.00 0.00 94 1015.1
20210614114010 50 357 0.0 0.0 0.00 0.00 0.00 94 1015.0
20210614113513 50 357 0.0 0.0 0.00 0.00 0.00 94 1015.1
20210614113114 50 357 0.0 0.0 0.00 0.00 0.00 94 1015.0
20210614112519 50 357 0.0 0.0 0.00 0.00 0.00 94 1015.0
20210614112025 49 357 0.0 0.0 0.00 0.00 0.00 94 1015.5
20210614111509 49 357 0.0 1.0 0.00 0.00 0.00 94 1015.0
20210614111019 49 357 0.0 1.0 0.00 0.00 0.00 94 1015.1
20210614110507 49 357 0.0 0.0 0.00 0.00 0.00 93 1015.0
20210614110008 49 357 0.0 0.0 0.00 0.00 0.00 93 1015.0
20210614105520 49 357 0.0 0.0 0.00 0.00 0.00 93 1015.0
20210614105007 49 357 0.0 0.0 0.00 0.00 0.00 93 1015.1
20210614104510 50 357 0.0 0.0 0.00 0.00 0.00 93 1015.1
20210614104009 50 357 0.0 0.0 0.00 0.00 0.00 93 1015.1
20210614103506 50 357 0.0 0.0 0.00 0.00 0.00 93 1015.1
20210614103032 50 357 0.0 3.0 0.00 0.00 0.00 94 1015.0